Simultaneous Nadir Overpasses (SNOs) Predictions

Prediction of SNOs between AQUA and NOAA-19 Satellite Orbit:

Table of predicted SNOs for the next 14.0 days since TLE Epoch: 8/21/2021
Index Date (AQUA) Time (AQUA) Lat,Lon (AQUA) SZA (AQUA ) Date (NOAA-19) Time (NOAA-19) Lat,Lon (NOAA-19) SZA (NOAA-19 ) Distance(km) Time Diff (sec)
1 08/22/2021 12:27:00 78.58, -28.17 67.81 08/22/2021 12:26:44 78.58, -28.12 67.81 1.28 16
2 08/22/2021 13:16:33 -78.87, 137.88 111.79 08/22/2021 13:17:39 -78.87, 141.20 112.06 71.31 66
3 08/24/2021 18:00:42 -78.54, 68.62 111.50 08/24/2021 17:59:55 -78.56, 68.51 111.46 2.87 47
4 08/24/2021 18:50:10 78.59,-123.99 68.58 08/24/2021 18:50:51 78.60,-123.90 68.58 2.68 41
5 08/27/2021 00:23:53 -78.59, -27.41 110.67 08/27/2021 00:24:02 -78.56, -27.41 110.69 2.83 9
6 08/29/2021 05:57:36 78.56, 69.27 70.08 08/29/2021 05:57:07 78.57, 69.44 70.08 3.86 29
7 08/29/2021 06:47:03 -78.59,-123.24 109.87 08/29/2021 06:48:08 -78.60,-123.10 109.90 3.02 65
8 08/31/2021 11:31:17 -78.52, 166.07 109.20 08/31/2021 11:30:15 -78.55, 166.14 109.15 3.72 62
9 08/31/2021 12:20:45 78.58, -26.60 70.90 08/31/2021 12:21:14 78.55, -26.62 70.86 3.44 29
10 09/02/2021 17:54:27 -78.53, 70.21 108.37 09/02/2021 17:54:22 -78.55, 70.18 108.35 1.62 5



Historial Predications of SNOs between AQUA and NOAA-19
